Retour au catalogue

THORAD DELTA 1 DEB

ActifLEO
NORAD 42619·DEBRIS·🇺🇸 United States

Lancé Nov 15, 1974 depuis Vandenberg Space Force Base

Loading…

Prochains Passages (prochaines 24 heures)

TLE

PériméSource: Space-Track

Époque: Sep 7, 2026, 19:37 UTC

1 42619U 74089GL  26250.81781714  .00001071  00000-0  17462-2 0  9993
2 42619 102.0487 266.2266 0176944 215.5269 321.7433 13.45169158625219

Suivez THORAD DELTA 1 DEB en temps réel avec AllMySat

Download on the App Store